Location: Arbon
(43.0005°N, 0.7472°E)
Time: 15:29:43
(UTC+00:00)

Vanguard 2 Rocket - All Passes

Search period start: 26 November 2020 00:00
Search period end: 06 December 2020 00:00
Orbit: 554 x 3326 km, 32.9° (Epoch: 25 November)

Date Brightness Start Highest point End Pass type
(mag) Time Alt. Az. Time Alt. Az. Time Alt. Az.
26 Nov - 04:59:19 10° SSE 05:08:21 15° SE 05:17:15 10° ESE visible
26 Nov - 07:06:28 10° SSW 07:23:43 37° SSE 07:38:12 10° E daylight
26 Nov - 09:21:19 10° WSW 09:40:08 54° S 09:52:59 10° E daylight
26 Nov - 11:39:27 10° W 11:55:51 53° SSW 12:05:40 10° ESE daylight
26 Nov - 13:58:47 10° W 14:09:18 29° SW 14:16:06 10° SSE daylight
27 Nov - 06:06:41 10° SSW 06:22:21 30° SE 06:36:48 10° E visible
27 Nov - 08:19:38 10° SW 08:38:38 51° SSE 08:52:58 10° E daylight
27 Nov - 10:36:51 10° WSW 10:55:01 57° S 11:06:28 10° ESE daylight
27 Nov - 12:55:55 10° W 13:09:35 40° SSW 13:17:57 10° SE daylight
27 Nov - 15:17:56 10° WSW 15:21:27 12° SW 15:24:27 10° SSW daylight
28 Nov - 05:08:03 10° S 05:21:12 23° SE 05:34:18 10° E visible
28 Nov - 07:18:35 10° SW 07:36:59 45° SSE 07:52:28 10° E daylight
28 Nov - 09:34:31 10° WSW 09:53:44 58° S 10:06:53 10° ESE daylight
28 Nov - 11:53:06 10° W 12:09:21 49° SSW 12:19:17 10° SE daylight
28 Nov - 14:13:14 10° W 14:22:18 22° SW 14:28:39 10° S daylight
29 Nov - 04:11:20 10° SSE 04:20:23 15° SE 04:29:46 10° ESE visible
29 Nov - 06:18:16 10° SSW 06:35:24 39° SSE 06:51:24 10° E visible
29 Nov - 08:32:36 10° WSW 08:52:07 57° S 09:06:55 10° E daylight
29 Nov - 10:50:23 10° W 11:08:35 56° SSW 11:20:12 10° ESE daylight
29 Nov - 13:09:53 10° W 13:22:44 32° SW 13:31:01 10° SSE daylight
30 Nov - 05:18:50 10° SSW 05:34:02 31° SE 05:49:33 10° E visible
30 Nov - 07:31:15 10° SW 07:50:19 53° SSE 08:06:30 10° E daylight
30 Nov - 09:47:56 10° WSW 10:07:19 59° S 10:20:41 10° ESE daylight
30 Nov - 12:06:51 10° W 12:22:39 43° SSW 12:32:39 10° SE daylight
30 Nov - 14:28:38 10° W 14:35:03 15° SW 14:40:08 10° SSW daylight
01 Dec - 04:20:31 10° S 04:33:02 23° SE 04:46:34 10° E visible
01 Dec - 06:30:35 10° SW 06:48:31 47° SSE 07:05:34 10° E visible
01 Dec - 08:45:52 10° WSW 09:05:39 60° S 09:20:45 10° ESE daylight
01 Dec - 11:04:02 10° W 11:22:00 51° SSW 11:33:44 10° SE daylight
01 Dec - 13:24:14 10° W 13:35:38 25° SW 13:43:33 10° S daylight
02 Dec - 03:24:08 10° SSE 03:32:27 15° SE 03:41:31 10° ESE visible
02 Dec - 05:30:39 10° SSW 05:46:56 39° SSE 06:04:02 10° E visible
02 Dec - 07:44:19 10° WSW 08:03:44 58° S 08:20:23 10° E daylight
02 Dec - 10:01:29 10° W 10:20:49 58° SSW 10:34:21 10° ESE daylight
02 Dec - 12:20:47 10° W 12:35:43 35° SW 12:45:39 10° SSE daylight
03 Dec - 04:31:35 10° SSW 04:45:43 31° SE 05:01:42 10° E visible
03 Dec - 06:43:23 10° SW 07:01:46 54° SSE 07:19:31 10° E daylight
03 Dec - 08:59:20 10° WSW 09:19:11 61° S 09:34:30 10° ESE daylight
03 Dec - 11:17:47 10° W 11:35:15 45° SSW 11:47:01 10° SE daylight
03 Dec - 13:39:22 10° W 13:48:18 18° SW 13:55:09 10° SSW daylight
04 Dec - 03:33:35 10° S 03:44:57 23° SE 03:58:15 10° E visible
04 Dec - 05:43:08 10° SW 05:59:58 47° SSE 06:18:07 10° E visible
04 Dec - 07:57:40 10° WSW 08:17:12 61° S 08:34:10 10° ESE daylight
04 Dec - 10:15:09 10° W 10:34:12 53° SSW 10:47:49 10° SE daylight
04 Dec - 12:35:04 10° W 12:48:33 28° SW 12:58:07 10° S daylight
05 Dec - 02:37:40 10° SSE 02:44:41 14° SE 02:52:36 10° ESE visible
05 Dec - 04:43:35 10° SSW 04:58:31 39° SSE 05:16:06 10° E visible
05 Dec - 06:56:34 10° WSW 07:15:07 59° SSE 07:33:21 10° E daylight
05 Dec - 09:12:56 10° W 09:32:38 59° SSW 09:48:06 10° ESE daylight
05 Dec - 11:31:42 10° W 11:48:16 38° SW 11:59:56 10° SSE daylight
05 Dec - 13:56:57 10° WSW 14:00:47 11° SW 14:04:14 10° SW daylight
